Regional Weather Roundup
Issued by NWS

Home | Current Version | Previous Version | Text Only | Print | Product List | Glossary On
Versions: 1 2 3 4 5 6 7 8 9 10 11 12 13 14 15 16 17 18 19 20 21 22 23 24 25 26 27 28 29 30 31 32 33 34 35 36 37 38 39 40 41 42 43 44 45 46 47 48 49 50
000
ASUS43 KMKX 300521
RWRWI

WISCONSIN REGIONAL WEATHER ROUNDUP
NATIONAL WEATHER SERVICE MILWAUKEE/SULLIVAN WI
1200 AM CDT SUN AUG 30 2015

NOTE: "FAIR" INDICATES FEW OR NO CLOUDS BELOW 12,000 FEET WITH NO
SIGNIFICANT WEATHER AND/OR OBSTRUCTIONS TO VISIBILITY.

WIZ001-002-006>008-014>016-023>028-300600-
NORTHWEST WISCONSIN

CITY           SKY/WX    TMP DP  RH WIND       PRES   REMARKS
SUPERIOR ARPT  PTCLDY    62  61  96 SW5       29.97R
ASHLAND        CLEAR     63  63 100 S3        29.99S
HAYWARD        CLEAR     62  61  96 S6        30.02S
SIREN          MOCLDY    62  61  96 S5        30.02S
CUMBERLAND     CLEAR     59  57  94 S3        30.03S FOG
RICE LAKE      CLEAR     60  58  92 SE3       30.04F
CHETEK         CLEAR    N/A N/A N/A E5        30.04S
LADYSMITH      CLEAR     61  60  96 S6        30.06R
EAU CLAIRE     CLEAR     61  59  93 S6        30.03F
MENOMONIE      CLEAR     60  59  98 SE5       30.03F FOG
NEW RICHMOND   PTCLDY    63  62  97 S5        30.03R
OSCEOLA        PTCLDY    63  63 100 S5        30.04S
$$

WIZ003>005-009-010-017-018-300600-
NORTH CENTRAL WISCONSIN

CITY           SKY/WX    TMP DP  RH WIND       PRES   REMARKS
MANITOWISH WTR CLEAR     58  58 100 CALM      30.04S FOG
ARBOR VITAE    CLEAR     62  60  95 SW5       30.05S
WOODRUFF       CLEAR     62  60  95 SW5       30.05S
RHINELANDER    PTCLDY    60  58  92 SW8       30.07S FOG
EAGLE RIVER    CLEAR     60  60  99 CALM      30.05S FOG
LAND O LAKES   FOG       56  56  97 CALM      30.05F VSB 1/2
PHILLIPS       MOCLDY    59  59 100 S3        30.04S
TOMAHAWK       FAIR      56  55  96 CALM      30.07R FOG
MEDFORD          N/A     55  55 100 S5        30.06S FOG
MERRILL        FOG       52  52 100 CALM      30.07S VSB 1/4
$$

WIZ029-030-035-036-043>047-300600-
CENTRAL WISCONSIN

CITY           SKY/WX    TMP DP  RH WIND       PRES   REMARKS
WAUSAU         CLEAR     57  56  96 CALM      30.05S FOG
MOSINEE        CLEAR     55  55 100 CALM      30.07S FOG
MARSHFIELD     FOG       59  55  87 CALM      30.06S VSB 3/4
STEVENS POINT  FOG       55  55  99 CALM      30.06F VSB 1/2
WAUPACA          N/A     58  57  97 CALM      30.06R FOG
WAUTOMA        FOG       61  61 100 CALM      30.06S VSB 1
WISC RAPIDS    CLOUDY    62  59  90 CALM      30.07F
CAMP DOUGLAS   CLOUDY    65  65 100 CALM      30.05F
$$

WIZ011>013-019>022-031-037>040-048>050-300600-
NORTHEAST WISCONSIN

CITY           SKY/WX    TMP DP  RH WIND       PRES   REMARKS
ANTIGO         FOG       54  54 100 CALM      30.07S VSB 1/4
SHAWANO        FOG       57  56  95 CALM      30.06S VSB 1/4
OCONTO         CLOUDY    54  54 100 CALM      30.05R VSB<1/4
STURGEON BAY   CLEAR     59  55  88 S6        30.08R
GREEN BAY      FOG       58  57  97 CALM      30.05S VSB 1/4
MANITOWOC      FOG       55  55 100 MISG      30.06S VSB 1/2
APPLETON       FOG       59  59 100 CALM      30.04S VSB 3/4
CLINTONVILLE   MOCLDY    54  54 100 CALM      30.05F FOG
OSHKOSH        CLOUDY    63  61  93 S5        30.04F
$$

WIZ032>034-041-042-053>061-300600-
SOUTHWEST WISCONSIN

CITY           SKY/WX    TMP DP  RH WIND       PRES   REMARKS
LA CROSSE      MOCLDY    62  61  96 SE5       30.05R
SPARTA         CLOUDY    65  58  78 S5        30.07S
VIROQUA          N/A     64  62  95 CALM      30.08R
BOSCOBEL       CLOUDY    66  63  90 CALM      30.06S
PRAIRIE DU CHI CLOUDY    65  63  91 CALM      30.05S
PLATTEVILLE    CLOUDY    65  64  97 CALM      30.06S
$$

WIZ056-057-062-063-064-067-068-300600-
SOUTH CENTRAL WISCONSIN

CITY           SKY/WX    TMP DP  RH WIND       PRES   REMARKS
REEDSBURG      CLOUDY    64  63  96 CALM      30.06S
BARABOO/DELLS  CLOUDY    64  62  92 CALM      30.06S
LONE ROCK      CLOUDY    66  63  90 CALM      30.06S
MINERAL POINT  CLOUDY    66  63  88 CALM      30.07S
MADISON        CLOUDY    64  62  93 N3        30.05S
MIDDLETON      CLOUDY    65  65  99 CALM      30.06S
WATERTOWN      CLOUDY    63  63 100 CALM      30.05S
MONROE         CLOUDY    64  63  94 CALM      30.05F
JANESVILLE     CLOUDY    64  63  94 NE3       30.04S FOG
$$

WIZ051-052-058>065-066-070>072-300600-
SOUTHEAST WISCONSIN

CITY           SKY/WX    TMP DP  RH WIND       PRES   REMARKS
MILWAUKEE      FOG       62  61  96 N6        30.04F VSB 1/4
WAUKESHA       CLOUDY    61  59  94 N3        30.06S FOG
MILWAUKEE/TIMM CLOUDY    61  59  94 CALM      30.06S FOG
RACINE         CLOUDY    63  61  93 N7        30.05F FOG
BURLINGTON     CLOUDY    61  61  99 CALM      30.04F FOG
KENOSHA        FOG       63  62  97 N3        30.04F VSB 1/2
FOND DU LAC    CLOUDY    64  62  93 CALM      30.05F
SHEBOYGAN      CLOUDY    63  61  93 CALM      30.05F FOG
WEST BEND      CLOUDY    61  59  94 CALM      30.05S FOG
JUNEAU         CLOUDY    62  61  97 CALM      30.07R FOG
$$

LSZ147-162-300600-
LAKE SUPERIOR

STATION/POSITION TIME  TEMP    WIND        PRES    WAVE
                       AIR SEA DIR/SP/G            HT/PER
                 (UTC) (F)     (DEG/KT/KT) (MB)    (FT/S)
W MID LAKE BUOY  0450   58 54  170/ 10/ 10 1014.7F   1
DEVILS ISLAND    0500   69     200/  8/ 10 1014.7S
PORT WING        0400   63     160/  3/  4 1014.9F
SAXON HARBOR     0400   64      CALM  /  2 1014.9
$$

LMZ867-665-643>646-300600-
LAKE MICHIGAN

STATION/POSITION TIME  TEMP    WIND        PRES    WAVE
                       AIR SEA DIR/SP/G            HT/PER
                 (UTC) (F)     (DEG/KT/KT) (MB)    (FT/S)
CHAMBERS ISLAND  0400   62     190/  2/  5 1017.6S
S GREEN BAY BUOY 0500   63 62  200/  6/  8 1018.9S
N MID LAKE BUOY  0450   63 65  210/  8/ 10 1017.2F   1
NORTHPORT PIER   0501   61     200/  3/  7 1017.3S
SISTER BAY       0404   61     180/  5/  7   N/A
ALGOMA LAKESHORE 0414             CALM       N/A
SHEBOYGAN LAKESH 0500   58      10/  5/  5 1017.9F
PORT WASHINGTON  0440   58      20/  1/  3 1018.3S
ATWATER BUOY     0500   53 50  330/  4/  6 1018.8S
MILWAUKEE LAKESH 0400   61      10/  5/  6   N/A
S MID LAKE BUOY  0450   68 68   60/  2/  2 1016.1F
KENOSHA   LAKESH 0500   62     360/  9/ 11 1016.9S
$$

TC  - TEMPERATURE IN CELSIUS
VSB - VISIBILITY IN STATUTE MILES
WCI - WIND CHILL INDEX
HX  - HEAT INDEX




USA.gov is the U.S. government's official web portal to all federal, state and local government web resources and services.